TimeCST,TemperatureF,Dew PointF,Humidity,Sea Level PressureIn,VisibilityMPH,Wind Direction,Wind SpeedMPH,Gust SpeedMPH,PrecipitationIn,Events,Conditions,WindDirDegrees,DateUTC
12:13 AM,24.8,17.6,74,29.55,10.0,South,9.2,-,N/A,,Clear,170,2013-02-18 06:13:00
12:33 AM,26.6,17.6,69,29.54,10.0,South,10.4,-,N/A,,Scattered Clouds,180,2013-02-18 06:33:00
12:53 AM,26.6,17.6,69,29.54,10.0,SSE,5.8,-,N/A,,Overcast,160,2013-02-18 06:53:00
1:13 AM,26.6,17.6,69,29.54,10.0,South,10.4,-,N/A,,Overcast,170,2013-02-18 07:13:00
1:33 AM,26.6,17.6,69,29.54,10.0,SSE,6.9,-,N/A,,Overcast,160,2013-02-18 07:33:00
1:53 AM,26.6,17.6,69,29.53,10.0,SSE,5.8,-,N/A,,Overcast,150,2013-02-18 07:53:00
2:13 AM,26.6,17.6,69,29.53,10.0,SSE,6.9,-,N/A,,Overcast,160,2013-02-18 08:13:00
2:33 AM,26.6,17.6,69,29.52,10.0,SSE,9.2,-,N/A,,Overcast,160,2013-02-18 08:33:00
2:53 AM,26.6,17.6,69,29.52,10.0,South,9.2,-,N/A,,Overcast,170,2013-02-18 08:53:00
3:13 AM,26.6,17.6,69,29.51,10.0,SSE,6.9,-,N/A,,Overcast,160,2013-02-18 09:13:00
3:33 AM,26.6,17.6,69,29.50,10.0,SSE,9.2,-,N/A,,Overcast,150,2013-02-18 09:33:00
3:53 AM,24.8,17.6,74,29.49,10.0,SSE,6.9,-,N/A,,Overcast,150,2013-02-18 09:53:00
4:13 AM,24.8,17.6,74,29.48,10.0,SSE,4.6,-,N/A,,Overcast,160,2013-02-18 10:13:00
4:33 AM,24.8,17.6,74,29.49,10.0,SSE,5.8,-,N/A,,Overcast,150,2013-02-18 10:33:00
4:53 AM,24.8,17.6,74,29.48,4.0,SSE,5.8,-,N/A,Snow,Light Snow,160,2013-02-18 10:53:00
5:13 AM,24.8,19.4,80,29.48,2.0,SSE,3.5,-,N/A,Snow,Light Snow,150,2013-02-18 11:13:00
5:33 AM,24.8,19.4,80,29.48,1.5,SSE,3.5,-,N/A,Snow,Light Snow,160,2013-02-18 11:33:00
6:13 AM,24.8,19.4,80,29.48,1.5,South,3.5,-,N/A,Snow,Light Snow,170,2013-02-18 12:13:00
6:33 AM,23.0,19.4,86,29.48,0.5,South,3.5,-,N/A,Snow,Heavy Snow,170,2013-02-18 12:33:00
6:53 AM,23.0,19.4,86,29.47,1.0,SSE,4.6,-,N/A,Snow,Snow,160,2013-02-18 12:53:00
7:13 AM,23.0,19.4,86,29.47,2.0,Calm,Calm,-,0.01,Snow,Light Snow,0,2013-02-18 13:13:00
7:33 AM,23.0,19.4,86,29.47,5.0,Calm,Calm,-,0.01,Snow,Light Snow,0,2013-02-18 13:33:00
7:53 AM,23.0,19.4,86,29.47,4.0,Calm,Calm,-,0.01,Snow,Light Snow,0,2013-02-18 13:53:00
8:13 AM,23.0,19.4,86,29.47,7.0,Calm,Calm,-,0.01,,Scattered Clouds,0,2013-02-18 14:13:00
8:33 AM,23.0,19.4,86,29.47,7.0,Calm,Calm,-,0.02,Snow,Light Snow,0,2013-02-18 14:33:00
8:53 AM,23.0,19.4,86,29.47,4.0,Calm,Calm,-,N/A,Snow,Light Snow,0,2013-02-18 14:53:00
9:13 AM,24.8,19.4,80,29.47,3.0,Calm,Calm,-,N/A,Snow,Light Snow,0,2013-02-18 15:13:00
9:33 AM,24.8,19.4,80,29.48,3.0,Calm,Calm,-,N/A,Snow,Light Snow,0,2013-02-18 15:33:00
9:53 AM,24.8,19.4,80,29.49,5.0,Calm,Calm,-,N/A,Snow,Light Snow,0,2013-02-18 15:53:00
10:13 AM,24.8,19.4,80,29.49,7.0,Calm,Calm,-,N/A,Snow,Light Snow,0,2013-02-18 16:13:00
10:33 AM,24.8,19.4,80,29.49,5.0,Calm,Calm,-,N/A,Snow,Light Snow,0,2013-02-18 16:33:00
10:53 AM,24.8,19.4,80,29.50,7.0,Calm,Calm,-,N/A,,Overcast,0,2013-02-18 16:53:00
11:13 AM,24.8,21.2,86,29.51,7.0,Calm,Calm,-,N/A,,Overcast,0,2013-02-18 17:13:00
11:33 AM,26.6,21.2,80,29.51,7.0,Calm,Calm,-,N/A,,Mostly Cloudy,0,2013-02-18 17:33:00
11:53 AM,26.6,21.2,80,29.52,7.0,NW,4.6,-,N/A,,Mostly Cloudy,310,2013-02-18 17:53:00
12:13 PM,26.6,21.2,80,29.52,10.0,NNW,4.6,-,N/A,,Overcast,330,2013-02-18 18:13:00
12:33 PM,26.6,21.2,80,29.52,7.0,NW,4.6,-,N/A,,Overcast,320,2013-02-18 18:33:00
12:53 PM,26.6,21.2,80,29.53,10.0,NNW,8.1,-,N/A,Snow,Light Snow,330,2013-02-18 18:53:00
1:13 PM,21.2,17.6,86,29.54,7.0,NW,8.1,16.1,N/A,Snow,Light Snow,310,2013-02-18 19:13:00
1:33 PM,21.2,15.8,80,29.55,7.0,NW,6.9,18.4,N/A,Snow,Light Snow,320,2013-02-18 19:33:00
1:53 PM,21.2,15.8,80,29.56,4.0,NW,6.9,20.7,N/A,Snow,Light Snow,320,2013-02-18 19:53:00
2:13 PM,21.2,15.8,80,29.58,2.5,NW,9.2,-,N/A,Snow,Light Snow,320,2013-02-18 20:13:00
2:33 PM,19.4,14.0,80,29.59,1.5,NNW,10.4,19.6,N/A,Snow,Light Snow,330,2013-02-18 20:33:00
2:53 PM,19.4,14.0,80,29.59,2.5,NW,10.4,24.2,N/A,Snow,Light Snow,310,2013-02-18 20:53:00
3:13 PM,19.4,12.2,74,29.61,1.2,NW,8.1,21.9,N/A,Snow,Light Snow,320,2013-02-18 21:13:00
3:33 PM,17.6,12.2,79,29.62,1.2,NW,11.5,20.7,N/A,Snow,Light Snow,320,2013-02-18 21:33:00
3:53 PM,17.6,10.4,73,29.64,1.5,NW,9.2,19.6,N/A,Snow,Light Snow,320,2013-02-18 21:53:00
4:14 PM,15.8,8.6,73,29.65,2.0,NW,9.2,18.4,N/A,Snow,Light Snow,310,2013-02-18 22:14:00
4:33 PM,15.8,8.6,73,29.67,3.0,NW,9.2,24.2,N/A,Snow,Light Snow,320,2013-02-18 22:33:00
4:53 PM,14.0,6.8,73,29.68,5.0,NNW,12.7,19.6,N/A,Snow,Light Snow,340,2013-02-18 22:53:00
5:13 PM,12.2,6.8,79,29.69,2.5,NNW,9.2,21.9,N/A,Snow,Light Snow,340,2013-02-18 23:13:00
5:33 PM,12.2,6.8,79,29.71,2.0,NNW,11.5,21.9,N/A,Snow,Light Snow,340,2013-02-18 23:33:00
5:53 PM,12.2,6.8,79,29.72,1.8,NNW,12.7,20.7,N/A,Snow,Light Snow,330,2013-02-18 23:53:00
6:13 PM,10.4,3.2,73,29.74,4.0,North,13.8,21.9,N/A,Snow,Light Snow,350,2013-02-19 00:13:00
6:33 PM,10.4,3.2,73,29.75,4.0,NNW,6.9,-,N/A,Snow,Light Snow,330,2013-02-19 00:33:00
6:53 PM,8.6,3.2,79,29.76,3.0,NNW,13.8,21.9,N/A,Snow,Light Snow,340,2013-02-19 00:53:00
7:13 PM,8.6,1.4,73,29.76,7.0,North,12.7,23.0,N/A,Snow,Light Snow,350,2013-02-19 01:13:00
7:33 PM,8.6,1.4,73,29.77,2.5,North,8.1,-,N/A,Snow,Light Snow,350,2013-02-19 01:33:00
7:53 PM,8.6,1.4,73,29.78,4.0,North,12.7,20.7,N/A,Snow,Light Snow,350,2013-02-19 01:53:00
8:13 PM,6.8,1.4,79,29.78,4.0,NNW,8.1,17.3,N/A,Snow,Light Snow,330,2013-02-19 02:13:00
8:33 PM,6.8,-0.4,72,29.79,4.0,NNW,12.7,20.7,N/A,Snow,Light Snow,340,2013-02-19 02:33:00
8:53 PM,5.0,-0.4,78,29.79,3.0,NNW,10.4,18.4,N/A,Snow,Light Snow,340,2013-02-19 02:53:00
9:13 PM,3.2,-2.2,78,29.80,5.0,NNW,11.5,18.4,N/A,Snow,Light Snow,340,2013-02-19 03:13:00
9:33 PM,3.2,-2.2,78,29.81,4.0,North,13.8,24.2,N/A,Snow,Light Snow,350,2013-02-19 03:33:00
9:53 PM,3.2,-2.2,78,29.82,3.0,North,9.2,16.1,N/A,Snow,Light Snow,350,2013-02-19 03:53:00
10:13 PM,3.2,-2.2,78,29.83,4.0,North,9.2,18.4,N/A,Snow,Light Snow,350,2013-02-19 04:13:00
10:33 PM,3.2,-4.0,72,29.83,4.0,NNW,10.4,21.9,N/A,Snow,Light Snow,340,2013-02-19 04:33:00
10:53 PM,3.2,-4.0,72,29.84,4.0,North,12.7,19.6,N/A,Snow,Light Snow,350,2013-02-19 04:53:00
11:13 PM,1.4,-5.8,72,29.85,7.0,North,11.5,24.2,N/A,Snow,Light Snow,350,2013-02-19 05:13:00
11:33 PM,1.4,-5.8,72,29.85,7.0,NNW,9.2,18.4,N/A,Snow,Light Snow,340,2013-02-19 05:33:00
11:53 PM,1.4,-5.8,72,29.86,5.0,North,13.8,21.9,N/A,Snow,Light Snow,350,2013-02-19 05:53:00